sat.trackr.live / text

‹ back to catalog

STARLINK-33546

NORAD 62287 · 2024-237W

PAYLOAD ACTIVE UNKNOWN

§ Identity

Operator
Country
US
Launch date
2024-12-08
Launch site
AFETR
Launch vehicle
Mass (kg)
RCS (m²)

Purposes: comms

External: N2YO · Heavens-Above · Gunter

§ Orbital elements

Epoch: 2026-05-25T00:13:12.718272Z

Period
94.27 min
Inclination
43.0001°
Eccentricity
0.0001250
Mean motion
15.27589562 rev/d
Perigee alt
482.2 km
Apogee alt
483.9 km
Semi-major
6,861.2 km
B*
5.4191e-4
RAAN
145.3743°
Arg perigee
272.5267°
Mean anomaly
87.5442°
Rev number
8,277

§ Raw data

STARLINK-335461 62287U 24237W   26145.00917498  .00014684  00000+0  54191-3 0  99942 62287  43.0001 145.3743 0001250 272.5267  87.5442 15.27589562 82775

JSON: /api/v1/satellites/62287 · /tle

For live sub-satellite position, see the globe view (requires WebGL).

§ Visibility from observer

Set your observer location to see the next 7 days of passes ≥ 10°. The values pass through the URL so the page stays shareable.

No JS? Fill the form by hand. The geolocation button needs JavaScript.